Douglas, WY

7:50 PM MST on February 24, 2017 (GMT -0700)
Converse County

Weather History for KDGW - September, 2012

Change the Weather History Date:

Friday, September 28, 2012

  Actual Average Record
Temperature  
Mean Temperature 56 °F 52 °F  
Max Temperature 74 °F 69 °F 92 °F (2010)
Min Temperature 38 °F 36 °F 26 °F (2009)
Degree Days  
Heating Degree Days 9 13  
Month to date heating degree days 113 202  
Since 1 July heating degree days 120 243  
Cooling Degree Days 0 0  
Month to date cooling degree days 34 27  
Year to date cooling degree days 831 485  
Growing Degree Days 5 (Base 50)    
Moisture  
Dew Point 41 °F    
Average Humidity 65    
Maximum Humidity 100    
Minimum Humidity 29    
Precipitation  
Precipitation 0.00 in 0.04 in 0.24 in (2015)
Month to date precipitation 0.34 1.15  
Year to date precipitation 4.25 11.20  
Sea Level Pressure  
Sea Level Pressure 30.11 in    
Wind  
Wind Speed 7 mph (SSE)    
Max Wind Speed 25 mph    
Max Gust Speed 31 mph    
Visibility 6 miles    
Events Fog    
T = Trace of Precipitation, MM = Missing Value Source: NWS Daily Summary

Daily Weather History Graph

Daily Weather History Graph

Search for Another Location

Airport or City:

Trip Planner

Search our weather history database for the weather conditions in past years. The results will help you decide how hot, cold, wet, or windy it might be!

Date:

Astronomy

Sep. 28, 2012 Rise Set
Actual Time 6:56 AM MDT 6:47 PM MDT
Civil Twilight 6:27 AM MDT 7:15 PM MDT
Nautical Twilight 5:54 AM MDT 7:48 PM MDT
Astronomical Twilight 5:21 AM MDT 8:21 PM MDT
Moon 5:50 PM MDT (9/28) 5:28 AM MDT (9/28)
Length of Visible Light 12h 47m
Length of Day
11h 51m
Waxing Gibbous, 98% of the Moon is Illuminated
Sep 28
Waxing Gibbous
Sep 29
Full
Oct 8
Last Quarter
Oct 15
New
Oct 21
First Quarter

Hourly Weather History & Observations

Time (MDT) Temp. Windchill Dew Point Humidity Pressure Visibility Wind Dir Wind Speed Gust Speed Precip Events Conditions
12:53 AM 46.9 °F - 44.1 °F 90% 30.10 in 10.0 mi Calm Calm - N/A   Clear
1:53 AM 46.0 °F - 44.1 °F 93% 30.09 in - Calm Calm - N/A   Clear
2:53 AM 44.1 °F 42.5 °F 42.1 °F 93% 30.09 in 10.0 mi East 3.5 mph - N/A   Clear
3:53 AM 44.1 °F - 43.0 °F 96% 30.09 in 10.0 mi Calm Calm - N/A   Clear
4:36 AM 41.0 °F - 39.2 °F 93% 30.20 in 1.8 mi Calm Calm - N/A   Partly Cloudy
4:45 AM 39.2 °F 37.0 °F 39.2 °F 100% 30.20 in 0.8 mi NW 3.5 mph - N/A   Mist
4:53 AM 39.0 °F - 39.0 °F 100% 30.13 in 0.5 mi Calm Calm - N/A Fog Fog
5:19 AM 39.2 °F - 37.4 °F 93% 30.19 in 1.0 mi Calm Calm - N/A   Mist
5:30 AM 37.4 °F - 37.4 °F 100% 30.19 in 2.0 mi Calm Calm - N/A   Overcast
5:39 AM 37.4 °F - 37.4 °F 100% 30.19 in 1.0 mi Calm Calm - N/A   Mist
5:53 AM 39.0 °F - 37.9 °F 96% 30.13 in 1.5 mi Calm Calm - N/A   Overcast
5:59 AM 37.4 °F - 37.4 °F 100% 30.19 in 0.8 mi Calm Calm - N/A   Mist
6:53 AM 37.9 °F - 37.9 °F 100% 30.16 in 0.5 mi Calm Calm - 0.01 in Fog Fog
7:53 AM 39.9 °F - 39.9 °F 100% 30.17 in 0.2 mi Calm Calm - N/A Fog Fog
8:42 AM 44.6 °F 40.2 °F 42.8 °F 93% 30.22 in 1.2 mi SE 8.1 mph - N/A   Overcast
8:46 AM 42.8 °F 38.6 °F 42.8 °F 100% 30.22 in 3.0 mi SE 6.9 mph - N/A   Overcast
8:53 AM 45.0 °F 41.8 °F 44.1 °F 97% 30.17 in 4.0 mi SE 5.8 mph - N/A   Overcast
9:53 AM 50.0 °F - 48.9 °F 96% 30.17 in 10.0 mi SE 10.4 mph - N/A   Mostly Cloudy
10:02 AM 51.8 °F - 50.0 °F 94% 30.22 in 10.0 mi SE 11.5 mph - N/A   Scattered Clouds
10:53 AM 57.9 °F - 50.0 °F 75% 30.12 in 10.0 mi SSE 8.1 mph - N/A   Clear
11:53 AM 66.0 °F - 46.9 °F 50% 30.07 in 10.0 mi SSE 10.4 mph - N/A   Clear
1:53 PM 73.0 °F - 41.0 °F 31% 30.01 in 10.0 mi SE 9.2 mph - N/A   Clear
2:53 PM 73.9 °F - 39.0 °F 28% 30.01 in 10.0 mi SE 13.8 mph - N/A   Clear
3:53 PM 69.1 °F - 37.0 °F 31% 30.01 in 10.0 mi ESE 12.7 mph - N/A   Clear
4:53 PM 68.0 °F - 39.0 °F 35% 30.02 in 10.0 mi SE 10.4 mph - N/A   Clear
5:53 PM 64.9 °F - 42.1 °F 43% 30.04 in 10.0 mi SSE 8.1 mph - N/A   Clear
6:53 PM 66.9 °F - 34.0 °F 30% 30.03 in 10.0 mi SSW 16.1 mph - N/A   Mostly Cloudy
7:53 PM 66.0 °F - 37.0 °F 34% 30.04 in 10.0 mi SSW 18.4 mph 26.5 mph N/A   Clear
8:53 PM 60.1 °F - 41.0 °F 49% 30.05 in 10.0 mi South 6.9 mph - N/A   Clear
9:53 PM 57.0 °F - 41.0 °F 55% 30.03 in 10.0 mi South 9.2 mph - N/A   Clear
10:53 PM 54.0 °F - 41.0 °F 62% 30.02 in 10.0 mi ESE 9.2 mph - N/A   Partly Cloudy
11:53 PM 50.0 °F - 39.9 °F 68% 30.00 in 10.0 mi SSE 4.6 mph - N/A   Clear